Location: Newark
(28.9833°N, 10.0667°W)
Time: 11:27:41
(UTC+00:00)

Hubble Space Telescope - Pass Details

Date: 14 December 2019
Orbit: 536 x 540 km, 28.5° (Epoch: 20 January)

Event Time Altitude Azimuth Distance (km) Brightness Sun altitude
Exits shadow 06:49:00 - 250° (WSW) 2,389 3.6 -8.1°
Reaches altitude 10° 06:50:34 10° 248° (WSW) 1,784 3.0 -7.8°
Maximum altitude 06:54:38 60° 168° (SSE) 614 1.3 -7.0°
Drops below altitude 10° 06:58:42 10° 88° (E) 1,786 4.7 -6.1°
Sets 07:00:59 0° 85° (E) 2,677 5.6 -5.7°
